Tracking 18980 objects as of 19-Feb-2018
HD Live streaming from Space Station
objects crossing your sky now

COSMOS 2092

Track COSMOS 2092 now!
10-day predictions
COSMOS 2092 is classified as:


NORAD ID: 20737
Int'l Code: 1990-070C
Perigee: 1,413.4 km
Apogee: 1,419.8 km
Inclination: 82.6 °
Period: 114.0 minutes
Semi major axis: 7787 km
RCS: 1.1992 m2 (large)
Launch date: August 8, 1990
Source: Commonwealth of Independent States (former USSR) (CIS)
Launch site: PLESETSK MISSILE AND SPACE COMPLEX (PKMTR)
aabbcc
Your satellite tracking list
Your tracking list is empty




NASA's NSSDC Master Catalog

Two Line Element Set (TLE):
1 20737U 90070C   18049.63856713 +.00000002 +00000-0 -45614-4 0  9993
2 20737 082.5655 092.0010 0004118 182.2762 295.1707 12.63271139269436
Source of the keplerian elements: AFSPC